Time,TemperatureF,DewpointF,PressureIn,WindDirection,WindDirectionDegrees,WindSpeedMPH,WindSpeedGustMPH,Humidity,HourlyPrecipIn,Conditions,Clouds,dailyrainin,SoftwareType,DateUTC
2013-05-21 11:42:00,77.0,48.0,29.88,WSW,243,6.0,13.0,36,0.00,,,0.00,,2013-05-21 18:42:00,
2013-05-21 11:52:00,77.0,48.0,29.88,WSW,243,6.0,13.0,36,0.00,,,0.00,,2013-05-21 18:52:00,
2013-05-21 12:01:00,77.0,46.0,29.87,WNW,303,7.0,12.0,34,0.00,,,0.00,,2013-05-21 19:01:00,
2013-05-21 12:11:00,77.0,46.0,29.87,WNW,303,7.0,12.0,34,0.00,,,0.00,,2013-05-21 19:11:00,
2013-05-21 12:21:00,78.0,43.0,29.87,West,264,7.0,12.0,29,0.00,,,0.00,,2013-05-21 19:21:00,
2013-05-21 12:31:00,79.0,44.0,29.86,SW,235,4.0,14.0,29,0.00,,,0.00,,2013-05-21 19:31:00,
2013-05-21 12:41:00,79.0,45.0,29.86,WSW,252,10.0,16.0,30,0.00,,,0.00,,2013-05-21 19:41:00,
2013-05-21 12:52:00,79.0,45.0,29.86,WSW,252,10.0,16.0,30,0.00,,,0.00,,2013-05-21 19:52:00,
2013-05-21 13:03:00,79.0,44.0,29.86,NW,306,8.0,16.0,29,0.00,,,0.00,,2013-05-21 20:03:00,
2013-05-21 13:11:00,79.0,44.0,29.86,NW,306,8.0,16.0,29,0.00,,,0.00,,2013-05-21 20:11:00,
2013-05-21 13:21:00,79.0,43.0,29.86,WSW,237,8.0,15.0,28,0.00,,,0.00,,2013-05-21 20:21:00,
2013-05-21 13:32:00,79.0,44.0,29.86,West,280,8.0,16.0,29,0.00,,,0.00,,2013-05-21 20:32:00,
2013-05-21 13:42:00,80.0,43.0,29.85,West,270,7.0,13.0,27,0.00,,,0.00,,2013-05-21 20:42:00,
2013-05-21 13:52:00,80.0,43.0,29.85,West,270,7.0,13.0,27,0.00,,,0.00,,2013-05-21 20:52:00,
2013-05-21 14:01:00,80.0,42.0,29.85,SW,215,7.0,14.0,26,0.00,,,0.00,,2013-05-21 21:01:00,
2013-05-21 14:11:00,80.0,42.0,29.85,SW,215,7.0,14.0,26,0.00,,,0.00,,2013-05-21 21:11:00,
2013-05-21 14:21:00,81.0,43.0,29.85,WSW,245,8.0,14.0,26,0.00,,,0.00,,2013-05-21 21:21:00,
2013-05-21 14:32:00,80.0,43.0,29.85,SW,225,7.0,13.0,27,0.00,,,0.00,,2013-05-21 21:32:00,
2013-05-21 14:43:00,81.0,43.0,29.85,WSW,250,8.0,15.0,26,0.00,,,0.00,,2013-05-21 21:43:00,
2013-05-21 14:53:00,81.0,43.0,29.85,WSW,250,8.0,15.0,26,0.00,,,0.00,,2013-05-21 21:53:00,
2013-05-21 15:02:00,81.0,43.0,29.85,WSW,250,8.0,15.0,26,0.00,,,0.00,,2013-05-21 22:02:00,
2013-05-21 15:12:00,81.0,43.0,29.85,WSW,250,8.0,15.0,26,0.00,,,0.00,,2013-05-21 22:12:00,
2013-05-21 15:22:00,81.0,43.0,29.85,WSW,250,8.0,15.0,26,0.00,,,0.00,,2013-05-21 22:22:00,
2013-05-21 23:11:00,57.0,45.0,29.87,WSW,256,0.0,1.0,64,0.00,,,0.00,,2013-05-22 06:11:00,
2013-05-21 23:21:00,57.0,45.0,29.87,WSW,256,0.0,1.0,64,0.00,,,0.00,,2013-05-22 06:21:00,
2013-05-21 23:31:00,55.0,44.0,29.87,WSW,256,0.0,0.0,66,0.00,,,0.00,,2013-05-22 06:31:00,
2013-05-21 23:41:00,54.0,44.0,29.88,WSW,256,0.0,1.0,69,0.00,,,0.00,,2013-05-22 06:41:00,
2013-05-21 23:52:00,54.0,44.0,29.88,WSW,256,0.0,1.0,69,0.00,,,0.00,,2013-05-22 06:52:00,